RH
77 75 55 44 43 42 38 37 39 41 43 46 45 45 54 67 97 90 86 59 51 40 26 35 53 71 88 88 74 70 49 87 95
78 81 64 48 49 50 50 51 55 61 64 64 62 66 68 73 95 89 73 74 69 62 57 52 54 51 54 67 78 83 72 50 63
82 76 72 50 51 57 62 67 71 73 74 76 79 82 82 95 98 98 96 83 78 76 74 71 72 68 62 71 73 76 72 67 64
82 76 78 50 57 68 73 72 75 78 80 82 84 82 78 83 94 84 94 84 84 80 82 80 87 92 88 78 73 78 77 77 75
84 79 70 60 68 74 77 80 85 87 85 82 83 81 79 92 80 86 79 79 79 80 77 71 75 81 85 87 93 92 90 86 85
83 71 52 73 76 82 86 88 86 81 82 80 79 76 79 83 80 83 75 72 71 75 78 78 77 76 76 71 66 71 75 84 92
61 49 65 78 83 90 92 90 84 82 79 77 77 79 77 76 68 63 61 60 55 56 53 62 60 64 66 67 70 68 68 69 76
65 73 82 86 90 95 83 80 79 77 78 78 76 66 57 48 42 37 38 37 40 41 52 49 44 47 49 52 54 52 58 61 64
86 90 97 92 87 82 83 79 78 79 77 66 40 34 34 34 33 32 29 28 30 33 46 40 37 37 40 48 47 48 56 58 65
93 92 88 83 83 81 79 80 82 72 41 34 33 32 30 28 26 25 23 24 24 27 32 31 33 37 42 48 49 51 55 57 62
81 81 80 82 82 78 81 84 58 34 32 28 25 23 21 20 19 21 23 26 30 34 34 29 22 18 20 22 21 20 23 24 27
79 78 77 80 82 81 86 39 32 30 29 26 23 21 20 20 21 22 25 25 23 18 13 10 9 8 8 9 10 8 8 8 8
79 80 77 78 81 83 34 33 32 25 20 18 19 19 20 21 21 23 26 26 23 20 16 12 9 8 8 7 7 6 6 6 5
88 85 80 82 80 34 34 33 29 26 21 18 19 18 19 21 22 25 26 26 22 14 14 16 13 9 9 8 7 7 6 6 6
95 86 84 74 35 34 37 37 36 32 25 20 17 15 16 17 21 23 26 21 12 11 11 11 10 9 8 8 8 8 8 8 8
97 87 84 36 35 39 41 42 41 37 30 22 22 16 14 14 19 25 21 17 12 12 12 10 9 10 10 10 10 9 9 9 8
89 76 44 36 38 43 44 45 44 40 33 22 24 26 24 26 19 16 14 18 14 13 10 11 11 11 10 10 10 9 9 9 8
77 42 36 38 43 45 47 48 46 38 33 22 20 23 25 26 23 17 18 16 20 16 14 12 12 12 11 10 9 8 8 8 9
43 38 38 42 45 47 48 48 46 38 28 22 18 16 18 27 26 29 31 31 31 35 26 17 14 13 14 13 12 10 10 8 26
40 40 41 45 46 48 49 49 44 38 26 20 17 21 28 35 36 32 28 32 34 39 43 44 34 39 40 39 40 43 60 83 91
Wind_Speed
6 6 7 7 8 8 8 7 5 3 2 1 1 1 2 4 5 5 5 5 5 5 4 6 7 6 11 14 10 9 11 12 11
2 5 5 5 5 6 6 6 5 5 4 4 4 4 4 4 5 6 7 7 7 7 5 4 5 8 10 11 11 10 10 12 16
5 1 2 3 3 4 5 6 6 6 5 5 4 4 5 6 6 7 7 9 9 10 9 7 7 8 8 10 10 10 10 10 11
8 4 2 2 3 4 5 5 4 3 3 4 6 7 8 7 8 10 8 11 9 10 11 11 11 12 13 12 12 13 13 12 13
9 7 6 3 4 4 3 2 2 3 5 7 7 8 8 5 8 7 10 9 8 11 14 12 13 13 13 11 12 17 19 19 19
9 9 6 4 4 3 1 2 4 6 8 8 9 9 8 6 7 6 10 10 10 11 13 13 12 13 14 15 14 15 15 16 18
10 8 7 5 3 2 1 2 5 7 9 11 11 11 11 10 11 11 11 10 11 12 14 14 15 15 16 17 16 16 16 17 16
9 7 6 4 4 3 3 4 7 10 11 12 14 13 12 11 12 15 13 13 13 14 14 16 16 16 16 17 18 18 19 18 19
7 6 6 6 4 3 5 8 10 11 14 14 13 14 14 15 15 18 16 14 13 13 15 16 16 15 15 16 18 18 20 20 21
8 7 5 5 6 6 8 11 12 13 13 15 16 17 17 17 16 16 15 13 13 13 13 14 14 14 14 16 17 18 19 20 22
8 7 5 7 6 7 11 13 12 12 14 17 18 17 17 16 15 13 13 11 11 11 13 14 16 16 17 18 19 20 21 23 24
9 8 5 6 9 10 12 10 12 14 16 17 17 17 16 14 13 11 10 10 10 11 12 14 15 16 16 18 19 20 22 24 26
12 10 8 7 10 11 9 10 13 14 14 14 15 15 15 14 13 12 11 11 12 14 15 17 17 18 20 22 23 24 25 27 29
15 12 9 9 8 7 8 10 11 12 12 12 13 15 14 11 10 10 11 12 14 16 20 21 22 22 24 26 26 26 27 28 30
18 15 9 8 7 5 7 9 11 12 13 12 12 11 10 9 8 10 11 14 15 19 22 20 24 27 27 27 27 27 27 29 29
17 16 10 9 6 5 6 9 11 13 14 13 12 8 7 12 8 5 15 18 20 21 21 24 26 28 27 27 26 26 27 29 30
17 16 12 9 6 5 6 8 11 13 14 12 8 5 5 4 6 21 8 15 16 20 22 26 24 26 26 25 27 27 28 30 31
19 16 13 10 7 6 6 8 10 12 14 12 6 5 4 13 10 9 16 12 19 21 25 25 26 27 25 27 29 30 31 32 32
19 17 13 10 7 6 7 9 10 11 11 13 12 9 10 6 10 8 12 14 18 22 23 24 28 22 24 28 29 29 33 36 33
21 17 14 10 7 7 8 9 11 12 12 12 13 12 11 10 10 19 15 21 20 20 16 24 20 21 24 24 23 30 32 30 29
Wind_Direction
101 76 74 81 87 92 102 114 121 120 112 68 254 320 15 11 327 352 345 352 341 329 294 263 253 249 248 266 277 291 255 245 247
88 66 74 85 88 91 93 94 89 74 64 56 41 25 9 9 337 340 334 331 334 335 342 327 298 279 262 267 267 273 282 261 254
174 125 79 101 97 95 95 93 87 83 70 52 29 7 1 358 327 324 328 316 325 329 324 319 319 310 287 270 266 274 278 276 275
172 178 240 170 134 108 100 94 85 63 20 357 333 328 329 326 300 313 320 308 313 307 305 305 300 299 290 288 284 271 271 275 278
169 183 218 184 143 118 111 99 13 352 335 328 320 320 323 323 321 315 304 312 312 299 304 308 303 300 294 295 292 275 269 272 275
188 200 194 186 170 173 192 341 344 338 320 315 324 329 323 316 310 308 303 305 301 298 294 297 299 299 300 299 294 289 284 280 274
196 195 194 195 199 238 286 334 332 318 311 314 317 315 311 304 300 293 298 297 297 293 295 288 290 291 294 297 298 296 291 286 284
183 193 194 213 226 256 303 293 298 302 304 306 307 308 308 305 301 296 295 295 287 292 287 283 286 287 288 288 286 288 289 287 286
186 184 193 211 230 258 280 287 289 299 304 306 307 307 305 300 297 294 292 290 285 280 277 283 287 286 285 281 282 284 284 286 285
178 198 226 226 246 260 281 286 294 300 304 305 304 303 300 296 293 288 291 287 283 282 279 286 291 291 286 283 286 287 286 284 282
205 222 244 259 262 265 277 288 294 303 306 306 306 303 299 297 291 285 287 281 280 279 281 290 292 291 288 287 288 289 288 285 285
200 215 253 272 268 275 281 288 305 314 316 312 309 307 301 297 290 283 278 280 278 283 290 295 298 299 296 293 292 292 291 289 288
215 221 236 253 261 269 283 308 315 321 321 318 312 310 301 290 277 273 268 272 283 291 293 298 302 305 307 303 300 297 295 292 291
213 218 234 247 247 261 301 315 322 326 327 323 315 309 296 280 269 262 268 277 291 299 301 294 300 302 306 305 303 299 297 296 295
211 215 227 229 229 271 305 318 327 332 334 333 322 307 296 280 266 271 276 282 295 307 308 305 308 310 309 306 303 301 299 296 297
207 212 220 212 230 270 305 321 330 337 340 345 335 315 293 287 262 283 288 289 295 302 307 310 309 307 305 303 302 299 297 296 295
209 205 207 213 230 269 304 323 334 338 343 350 347 313 287 299 243 299 312 292 290 295 299 305 307 309 308 306 304 302 299 297 296
200 197 206 215 237 275 305 327 338 336 338 346 356 322 290 305 285 282 290 290 297 300 306 311 315 314 312 310 308 306 303 302 300
195 201 207 219 244 278 308 325 332 337 331 334 335 324 298 304 303 286 304 283 306 308 308 311 314 307 308 307 305 303 303 305 302
196 205 211 224 250 285 309 322 329 329 327 327 328 319 310 292 284 299 300 301 304 302 299 306 307 306 308 306 306 302 311 308 304